[[{"header":{"parameterUnit":"m.s-1","parameterCategory":2,"la1":30.2991,"la2":30.254,"lo1":-89.0895,"lo2":-89.0444,"dy":0.0017,"dx":0.0017,"nx":28,"ny":28,"refTime":"2023-11-13T03:00:00:Z","depth":"0","parameterNumber":2,"parameterNumberName":"U-component_of_CURRENTS"},"data":[0,0,0,0,0,0,0,0,0,0,0,0,0,0,0,0,0,0,0,0,0,0,0,0,0,0,0,0,0,0,0,0,0,0,0,0,0,0,0,0,0,0,0,0,0,0,0,0,0,0,0,0,0,0,0,0,0,0,-0.2212,-0.2212,0,-0.2209,-0.2208,-0.2208,-0.2174,-0.2173,-0.2173,-0.2172,-0.213,-0.2129,-0.2128,0,0,0,0,0,0,0,0,0,0,0,0,0,-0.2169,-0.217,-0.2211,-0.2212,-0.2212,-0.2209,-0.2208,-0.2208,-0.2174,-0.2173,-0.2172,-0.2172,-0.213,-0.2129,-0.2128,0,0,0,0,0,0,0,0,0,0,0,0,0,-0.2176,-0.217,-0.2211,-0.2197,-0.2196,-0.2209,-0.2208,-0.2208,-0.2174,-0.2173,-0.2172,-0.2171,-0.213,-0.2129,-0.2128,-0.2139,0,0,-0.2125,-0.2125,0,0,0,0,0,0,0,0,-0.2176,-0.2177,-0.2199,-0.2198,-0.2197,-0.2194,-0.2178,-0.2184,-0.2174,-0.2179,-0.2172,-0.2171,-0.215,-0.2148,-0.2145,-0.2137,-0.2135,-0.2125,-0.2125,-0.2124,-0.2124,0,0,0,0,0,0,0,-0.2175,-0.2177,-0.2207,-0.2199,-0.2198,-0.2185,-0.2185,-0.2179,-0.2166,-0.2178,-0.2177,-0.2182,-0.2149,-0.2146,-0.2143,-0.2135,-0.2125,-0.2125,-0.2124,-0.2124,-0.2143,-0.2144,0,0,0,0,0,0,-0.2185,-0.2177,-0.2207,-0.2207,-0.2188,-0.2187,-0.2186,-0.2193,-0.2167,-0.2163,-0.2183,-0.218,-0.2148,-0.2144,-0.2142,-0.2161,-0.2124,-0.2124,-0.2123,-0.2142,-0.2143,-0.2144,0,0,0,0,0,0,-0.2184,-0.2187,-0.2207,-0.2194,-0.2196,-0.2189,-0.2196,-0.2193,-0.2189,-0.2171,-0.2166,-0.2182,-0.2147,-0.2143,-0.2141,-0.2159,-0.2123,-0.2122,-0.214,-0.2142,-0.2143,-0.2196,0,0,0,0,0,0,-0.2183,-0.2187,-0.219,-0.2195,-0.2198,-0.2221,-0.2197,-0.2194,-0.2196,-0.2192,-0.2169,-0.2164,-0.2146,-0.2142,-0.214,-0.2157,-0.2122,-0.2139,-0.2141,-0.2143,-0.2193,-0.2199,-0.2204,0,0,0,0,0,-0.2181,-0.2192,-0.219,-0.2193,-0.2203,-0.2222,-0.2222,-0.2211,-0.2196,-0.2202,-0.2185,-0.2165,-0.2153,-0.2142,-0.2139,-0.2157,-0.2138,-0.2141,-0.2143,-0.219,-0.2198,-0.2204,0,0,0,0,0,0,-0.2174,-0.2191,-0.2187,-0.2202,-0.2214,-0.2218,-0.2219,-0.2216,-0.2207,-0.2198,-0.2175,-0.217,-0.2178,-0.2162,-0.2151,-0.2169,-0.2144,-0.2146,-0.2181,-0.2188,-0.2193,-0.2196,-0.2121,0,0,0,0,0,-0.2177,-0.2184,-0.2203,-0.2211,-0.222,-0.222,-0.2224,-0.2222,-0.2219,-0.2213,-0.22,-0.2187,-0.2187,-0.2182,-0.2177,-0.2184,-0.2173,-0.2195,-0.2201,-0.2206,-0.2207,-0.2206,-0.2211,-0.2152,-0.2152,-0.2152,0,0,-0.2175,-0.2184,-0.2188,-0.221,-0.2213,-0.2237,-0.2219,-0.223,-0.2247,-0.2211,-0.2219,-0.2207,-0.2194,-0.2204,-0.2206,-0.2191,-0.222,-0.2209,-0.2213,-0.2212,-0.2209,-0.2214,-0.2219,-0.2153,-0.2153,-0.2153,0,0,-0.2184,-0.2187,-0.2201,-0.2218,-0.2236,-0.2243,-0.2251,-0.2262,-0.226,-0.2272,-0.2254,-0.2253,-0.2246,-0.2245,-0.2242,-0.2278,-0.2252,-0.2277,-0.2305,-0.2304,-0.2309,-0.2313,-0.2317,-0.2321,-0.2278,-0.2278,-0.2278,0,-0.218,-0.2202,-0.2208,-0.2234,-0.2248,-0.2251,-0.2277,-0.2287,-0.2294,-0.2297,-0.228,-0.228,-0.2268,-0.2287,-0.2298,-0.2291,-0.2285,-0.2279,-0.2311,-0.2315,-0.2318,-0.2321,-0.2324,-0.228,-0.228,-0.228,-0.228,0,-0.2207,-0.2226,-0.2237,-0.2269,-0.2288,-0.2308,-0.2332,-0.2346,-0.2342,-0.2347,-0.2359,-0.2344,-0.234,-0.2344,-0.2329,-0.2352,-0.2339,-0.2321,-0.2292,-0.2327,-0.2328,-0.2331,-0.2284,-0.2283,-0.2283,-0.2282,0,0,-0.2187,-0.2245,-0.2246,-0.2267,-0.2306,-0.2324,-0.2361,-0.2391,-0.241,-0.241,-0.2429,-0.2429,-0.241,-0.2407,-0.2393,-0.2394,-0.2413,-0.2366,-0.2365,-0.2368,-0.2414,-0.2393,-0.2394,-0.2396,-0.2397,-0.2397,-0.241,0,-0.22,-0.2251,-0.2278,-0.2322,-0.2349,-0.2373,-0.2407,-0.2434,-0.2447,-0.2468,-0.2459,-0.2467,-0.244,-0.2434,-0.2434,-0.2418,-0.242,-0.2411,-0.2381,-0.2381,-0.2356,-0.2396,-0.2341,-0.2346,-0.2412,-0.2412,-0.2413,0,-0.2209,-0.2243,-0.229,-0.2346,-0.236,-0.2387,-0.2431,-0.2465,-0.2502,-0.2508,-0.2517,-0.2511,-0.2518,-0.2485,-0.2476,-0.2469,-0.2446,-0.2432,-0.2431,-0.2393,-0.2365,-0.232,-0.2348,-0.2337,-0.2416,-0.2416,-0.2416,0,-0.2176,-0.2245,-0.2279,-0.2299,-0.237,-0.2387,-0.2417,-0.2463,-0.2491,-0.2527,-0.2544,-0.2552,-0.2547,-0.2529,-0.2496,-0.2486,-0.2484,-0.2464,-0.2428,-0.2426,-0.2364,-0.2355,-0.2373,-0.2458,-0.2458,-0.2458,-0.2458,0,-0.217,-0.2194,-0.2264,-0.2281,-0.2315,-0.2368,-0.2405,-0.2438,-0.2492,-0.2519,-0.2549,-0.2567,-0.2555,-0.2553,-0.252,-0.2485,-0.25,-0.2443,-0.2431,-0.2382,-0.2376,-0.2349,-0.235,-0.2459,-0.2458,-0.2458,-0.2458,0,-0.2117,-0.2171,-0.2206,-0.2276,-0.2298,-0.2312,-0.2384,-0.2411,-0.2472,-0.251,-0.252,-0.2575,-0.2573,-0.2566,-0.2542,-0.2509,-0.2445,-0.2461,-0.241,-0.2392,-0.2347,-0.2352,-0.2317,-0.2253,-0.2433,-0.2433,-0.2432,0,-0.2093,-0.2108,-0.2176,-0.219,-0.2215,-0.2258,-0.2285,-0.237,-0.2402,-0.2505,-0.2511,-0.2554,-0.2564,-0.2549,-0.2506,-0.2468,-0.2425,-0.2388,-0.2357,-0.2349,-0.2346,-0.2317,-0.2263,-0.23,-0.2299,-0.2298,-0.2297,0,-0.2027,-0.2048,-0.2072,-0.2106,-0.2133,-0.2172,-0.2219,-0.2254,-0.2352,-0.2404,-0.2464,-0.2495,-0.2519,-0.2478,-0.2447,-0.2402,-0.2339,-0.2364,-0.2362,-0.2256,-0.2217,-0.2147,-0.2297,-0.2287,-0.2288,-0.2288,-0.2289,-0.2289,-0.1952,-0.1949,-0.1977,-0.1996,-0.203,-0.205,-0.2049,-0.213,-0.2179,-0.2248,-0.2353,-0.2408,-0.2432,-0.2394,-0.2354,-0.2285,-0.227,-0.2225,-0.2237,-0.2214,-0.2135,-0.2271,-0.2241,-0.2241,-0.2242,-0.2242,-0.2243,0,-0.1847,-0.1854,-0.1867,-0.1884,-0.1869,-0.1926,-0.1972,-0.196,-0.1986,-0.2125,-0.2184,-0.2308,-0.2283,-0.2307,-0.2274,-0.2194,-0.2105,-0.213,-0.2079,-0.203,-0.216,-0.2138,-0.2073,-0.2073,-0.2073,-0.2073,-0.2073,-0.2073,-0.1791,-0.1757,-0.1766,-0.1703,-0.1715,-0.1661,-0.1659,-0.1675,-0.1749,-0.186,-0.2009,-0.2178,-0.223,-0.2362,-0.2276,-0.2163,-0.2072,-0.2007,-0.199,-0.2105,-0.2114,-0.2124,-0.2103,-0.2033,-0.2033,-0.1796,-0.1794,-0.1793]},{"header":{"parameterUnit":"m.s-1","parameterCategory":2,"la1":30.2991,"la2":30.254,"lo1":-89.0895,"lo2":-89.0444,"dy":0.0017,"dx":0.0017,"nx":28,"ny":28,"refTime":"2023-11-13T03:00:00:Z","depth":"0","parameterNumber":3,"parameterNumberName":"V-component_of_CURRENTS"},"data":[0,0,0,0,0,0,0,0,0,0,0,0,0,0,0,0,0,0,0,0,0,0,0,0,0,0,0,0,0,0,0,0,0,0,0,0,0,0,0,0,0,0,0,0,0,0,0,0,0,0,0,0,0,0,0,0,0,0,-0.0376,-0.0375,0,-0.0314,-0.0313,-0.0312,-0.0274,-0.0273,-0.0273,-0.0273,-0.0194,-0.0192,-0.019,0,0,0,0,0,0,0,0,0,0,0,0,0,-0.0424,-0.0423,-0.0376,-0.0375,-0.0374,-0.0314,-0.0313,-0.0312,-0.0274,-0.0273,-0.0273,-0.0273,-0.0195,-0.0193,-0.019,0,0,0,0,0,0,0,0,0,0,0,0,0,-0.0387,-0.0423,-0.0376,-0.0348,-0.0344,-0.0314,-0.0313,-0.0312,-0.0274,-0.0273,-0.0273,-0.0273,-0.0196,-0.0193,-0.019,-0.0179,0,0,-0.0181,-0.018,0,0,0,0,0,0,0,0,-0.0389,-0.0385,-0.0353,-0.035,-0.0346,-0.0301,-0.0301,-0.0267,-0.0274,-0.0301,-0.0273,-0.0273,-0.0228,-0.0223,-0.0212,-0.0176,-0.0172,-0.0181,-0.0179,-0.0178,-0.0177,0,0,0,0,0,0,0,-0.0392,-0.0387,-0.0351,-0.0352,-0.0348,-0.0325,-0.032,-0.0294,-0.0267,-0.0298,-0.0295,-0.0288,-0.0226,-0.0215,-0.021,-0.0171,-0.0181,-0.0179,-0.0177,-0.0176,-0.0118,-0.0118,0,0,0,0,0,0,-0.0401,-0.039,-0.0353,-0.035,-0.0367,-0.0325,-0.0319,-0.0316,-0.0268,-0.026,-0.0289,-0.0287,-0.022,-0.0214,-0.0207,-0.019,-0.0178,-0.0176,-0.0174,-0.0118,-0.0118,-0.0118,0,0,0,0,0,0,-0.0402,-0.0399,-0.0356,-0.0368,-0.0361,-0.0324,-0.0321,-0.0315,-0.0302,-0.026,-0.0252,-0.0283,-0.022,-0.0211,-0.0183,-0.0186,-0.0174,-0.0172,-0.0117,-0.0118,-0.0118,-0.0156,0,0,0,0,0,0,-0.0404,-0.04,-0.0403,-0.0369,-0.036,-0.0343,-0.0321,-0.0314,-0.0298,-0.0295,-0.0253,-0.0245,-0.0219,-0.0187,-0.018,-0.0182,-0.0169,-0.0117,-0.0118,-0.0118,-0.0154,-0.0157,-0.016,0,0,0,0,0,-0.0406,-0.0413,-0.0403,-0.0399,-0.0365,-0.0344,-0.0338,-0.031,-0.0298,-0.0297,-0.0264,-0.0246,-0.0184,-0.0185,-0.0176,-0.0178,-0.0117,-0.0117,-0.0118,-0.0153,-0.0157,-0.016,0,0,0,0,0,0,-0.0435,-0.0409,-0.0397,-0.0396,-0.0374,-0.0337,-0.0334,-0.0314,-0.0287,-0.0284,-0.0244,-0.0234,-0.0212,-0.019,-0.0192,-0.0163,-0.0149,-0.0148,-0.0179,-0.0182,-0.0185,-0.0194,-0.0167,0,0,0,0,0,-0.0444,-0.0443,-0.0411,-0.0411,-0.0402,-0.0369,-0.0357,-0.0338,-0.0309,-0.0297,-0.0266,-0.0235,-0.0207,-0.0191,-0.0166,-0.0147,-0.012,-0.0144,-0.0147,-0.0149,-0.0151,-0.0113,-0.0113,-0.0119,-0.0119,-0.0119,0,0,-0.0454,-0.044,-0.0439,-0.0417,-0.0398,-0.0392,-0.0361,-0.0347,-0.0338,-0.0293,-0.0274,-0.0244,-0.0205,-0.0184,-0.0173,-0.0165,-0.0134,-0.0149,-0.0152,-0.0152,-0.0113,-0.0113,-0.0112,-0.0119,-0.0119,-0.0119,0,0,-0.0479,-0.0463,-0.0473,-0.046,-0.0437,-0.0412,-0.041,-0.0376,-0.0358,-0.0334,-0.03,-0.027,-0.023,-0.0201,-0.0181,-0.0183,-0.0151,-0.018,-0.0197,-0.0161,-0.016,-0.0159,-0.0126,-0.0122,-0.0179,-0.0179,-0.0179,0,-0.0493,-0.0501,-0.0472,-0.0479,-0.0473,-0.0425,-0.0433,-0.0405,-0.0365,-0.0349,-0.0335,-0.0269,-0.0237,-0.0203,-0.0205,-0.0189,-0.0165,-0.0188,-0.0164,-0.0162,-0.0161,-0.0127,-0.0122,-0.0181,-0.0181,-0.0181,-0.0181,0,-0.0528,-0.0531,-0.0536,-0.0528,-0.0517,-0.0516,-0.0476,-0.0455,-0.0424,-0.0393,-0.0354,-0.0304,-0.0264,-0.0251,-0.0227,-0.02,-0.0187,-0.0173,-0.0157,-0.0162,-0.0127,-0.0121,-0.0184,-0.0183,-0.0183,-0.0182,0,0,-0.0562,-0.0562,-0.0563,-0.0573,-0.0546,-0.0541,-0.052,-0.0487,-0.0472,-0.0423,-0.0399,-0.0345,-0.0312,-0.0287,-0.025,-0.0216,-0.0182,-0.0194,-0.0191,-0.0164,-0.0103,-0.0058,-0.0046,-0.0165,-0.0164,-0.0163,-0.0084,0,-0.0597,-0.0631,-0.0613,-0.0633,-0.0647,-0.0601,-0.059,-0.0552,-0.0504,-0.0466,-0.0398,-0.0364,-0.0326,-0.0308,-0.0266,-0.02,-0.0167,-0.0205,-0.01,-0.0097,-0.0057,-0.0038,-0.0007,0.0069,-0.0078,-0.0077,-0.0076,0,-0.0637,-0.0656,-0.0692,-0.0696,-0.0697,-0.0694,-0.0664,-0.0644,-0.0571,-0.0536,-0.0474,-0.0418,-0.035,-0.0324,-0.0209,-0.0235,-0.0178,-0.0127,-0.0122,-0.0062,-0.004,0.0052,0.0086,0.0195,-0.0066,-0.0067,-0.0068,0,-0.0689,-0.0707,-0.074,-0.0744,-0.0739,-0.0738,-0.0721,-0.0666,-0.065,-0.0571,-0.0548,-0.0454,-0.0405,-0.0316,-0.0198,-0.0207,-0.0071,-0.0069,0.0026,0.003,0.0086,0.0094,0.0238,0.0,0.0,-0.0,-0.0,0,-0.074,-0.0763,-0.0768,-0.0789,-0.0822,-0.0792,-0.08,-0.0763,-0.071,-0.0691,-0.0588,-0.0546,-0.0402,-0.03,-0.0205,-0.0057,-0.0071,0.0031,0.0058,0.0074,0.0079,0.0201,0.0252,0.0003,0.0002,0.0002,0.0001,0,-0.0795,-0.0797,-0.0838,-0.0847,-0.085,-0.0872,-0.086,-0.0859,-0.0797,-0.0763,-0.0742,-0.061,-0.0465,-0.0313,-0.0155,-0.0062,0.0147,0.0116,0.0127,0.0154,0.034,0.0388,0.0576,0.0617,0.0233,0.0235,0.0236,0,-0.0827,-0.0855,-0.089,-0.092,-0.0925,-0.0946,-0.096,-0.0912,-0.0901,-0.0801,-0.0788,-0.0636,-0.0519,-0.0249,-0.0051,0.0147,0.0225,0.0277,0.0268,0.0369,0.0442,0.0478,0.05,0.0326,0.0328,0.033,0.0331,0,-0.0886,-0.0896,-0.0932,-0.0998,-0.1026,-0.1056,-0.106,-0.1068,-0.1,-0.0955,-0.0858,-0.0751,-0.0457,-0.0194,0.0082,0.0197,0.0374,0.0317,0.0425,0.0536,0.0584,0.0629,0.025,0.0346,0.0344,0.0343,0.0343,0.0342,-0.0921,-0.0966,-0.1013,-0.1073,-0.1113,-0.1151,-0.1175,-0.1163,-0.1145,-0.1057,-0.0925,-0.0748,-0.0322,0.0086,0.0221,0.0537,0.0502,0.0617,0.0668,0.0696,0.0741,0.0394,0.0519,0.0518,0.0518,0.0517,0.0517,0,-0.0968,-0.1018,-0.1083,-0.1152,-0.121,-0.1206,-0.1233,-0.1237,-0.1223,-0.1095,-0.0969,-0.0522,-0.0119,0.0252,0.0739,0.0887,0.089,0.0953,0.1008,0.1011,0.0714,0.0721,0.0892,0.0892,0.0891,0.0891,0.0891,0.0891,-0.0994,-0.1071,-0.111,-0.1217,-0.1263,-0.132,-0.1336,-0.1322,-0.1243,-0.1047,-0.0808,-0.059,0.0002,0.0828,0.1247,0.125,0.1338,0.134,0.1375,0.1171,0.1143,0.1116,0.1135,0.139,0.1391,0.1643,0.1646,0.1648]}],[{"header":{"parameterUnit":"m.s-1","parameterCategory":2,"la1":30.2991,"la2":30.254,"lo1":-89.0895,"lo2":-89.0444,"dy":0.0017,"dx":0.0017,"nx":28,"ny":28,"refTime":"2023-11-13T03:00:00:Z","depth":"2","parameterNumber":2,"parameterNumberName":"U-component_of_CURRENTS"},"data":[0,0,0,0,0,0,0,0,0,0,0,0,0,0,0,0,0,0,0,0,0,0,0,0,0,0,0,0,0,0,0,0,0,0,0,0,0,0,0,0,0,0,0,0,0,0,0,0,0,0,0,0,0,0,0,0,0,0,-0.2104,-0.2104,0,-0.2102,-0.2101,-0.2101,-0.2072,-0.2071,-0.2071,-0.207,-0.2034,-0.2033,-0.2033,0,0,0,0,0,0,0,0,0,0,0,0,0,-0.2064,-0.2064,-0.2103,-0.2104,-0.2104,-0.2102,-0.2101,-0.2101,-0.2072,-0.2071,-0.2071,-0.207,-0.2034,-0.2033,-0.2032,0,0,0,0,0,0,0,0,0,0,0,0,0,-0.207,-0.2065,-0.2103,-0.2092,-0.2091,-0.2102,-0.2101,-0.2101,-0.2072,-0.2071,-0.207,-0.207,-0.2034,-0.2033,-0.2032,-0.2041,0,0,-0.203,-0.2029,0,0,0,0,0,0,0,0,-0.207,-0.2071,-0.2093,-0.2092,-0.2092,-0.2089,-0.2074,-0.208,-0.2072,-0.2075,-0.207,-0.2069,-0.2052,-0.2049,-0.2046,-0.2039,-0.2037,-0.203,-0.2029,-0.2029,-0.2029,0,0,0,0,0,0,0,-0.207,-0.2071,-0.2099,-0.2093,-0.2093,-0.2081,-0.208,-0.2075,-0.2064,-0.2075,-0.2074,-0.2079,-0.205,-0.2047,-0.2045,-0.2037,-0.203,-0.2029,-0.2029,-0.2028,-0.2049,-0.205,0,0,0,0,0,0,-0.2078,-0.2071,-0.2099,-0.21,-0.2083,-0.2082,-0.2082,-0.2088,-0.2065,-0.2062,-0.208,-0.2078,-0.2049,-0.2046,-0.2044,-0.2066,-0.2029,-0.2028,-0.2028,-0.2048,-0.2049,-0.205,0,0,0,0,0,0,-0.2078,-0.2081,-0.21,-0.2088,-0.209,-0.2084,-0.2091,-0.2088,-0.2086,-0.2069,-0.2065,-0.2081,-0.2048,-0.2045,-0.2044,-0.2064,-0.2028,-0.2027,-0.2046,-0.2048,-0.2049,-0.2101,0,0,0,0,0,0,-0.2076,-0.2081,-0.2084,-0.2089,-0.2091,-0.2113,-0.2092,-0.2089,-0.2092,-0.209,-0.2069,-0.2065,-0.2047,-0.2046,-0.2043,-0.2062,-0.2026,-0.2045,-0.2047,-0.2049,-0.2098,-0.2104,-0.211,0,0,0,0,0,-0.2075,-0.2086,-0.2084,-0.2087,-0.2097,-0.2115,-0.2115,-0.2105,-0.2093,-0.2099,-0.2084,-0.2066,-0.2057,-0.2046,-0.2043,-0.2061,-0.2044,-0.2046,-0.2049,-0.2096,-0.2103,-0.211,0,0,0,0,0,0,-0.2069,-0.2084,-0.2082,-0.2096,-0.2108,-0.2111,-0.2113,-0.2111,-0.2104,-0.2097,-0.2076,-0.2071,-0.208,-0.2065,-0.2054,-0.2074,-0.2049,-0.2051,-0.2086,-0.2092,-0.2098,-0.21,-0.2026,0,0,0,0,0,-0.2072,-0.2079,-0.2097,-0.2105,-0.2113,-0.2114,-0.2118,-0.2117,-0.2115,-0.2111,-0.2099,-0.2088,-0.2089,-0.2085,-0.208,-0.2089,-0.2077,-0.2101,-0.2106,-0.2111,-0.2112,-0.2111,-0.2117,-0.2058,-0.2058,-0.2058,0,0,-0.2071,-0.208,-0.2083,-0.2104,-0.2107,-0.2131,-0.2114,-0.2126,-0.2143,-0.2109,-0.2119,-0.2108,-0.2096,-0.2108,-0.211,-0.2096,-0.2125,-0.2114,-0.2119,-0.2117,-0.2114,-0.212,-0.2125,-0.2059,-0.2059,-0.2059,0,0,-0.2079,-0.2083,-0.2096,-0.2113,-0.213,-0.2138,-0.2146,-0.2157,-0.2157,-0.217,-0.2153,-0.2154,-0.2149,-0.2148,-0.2146,-0.2182,-0.2157,-0.2182,-0.221,-0.2209,-0.2214,-0.2218,-0.2222,-0.2226,-0.2183,-0.2183,-0.2183,0,-0.2077,-0.2098,-0.2103,-0.2128,-0.2141,-0.2146,-0.2171,-0.2181,-0.219,-0.2194,-0.2179,-0.2182,-0.217,-0.219,-0.2201,-0.2195,-0.2189,-0.2184,-0.2216,-0.222,-0.2223,-0.2226,-0.2229,-0.2185,-0.2185,-0.2185,-0.2185,0,-0.2102,-0.2121,-0.2131,-0.2162,-0.218,-0.22,-0.2224,-0.2238,-0.2237,-0.2243,-0.2257,-0.2243,-0.2241,-0.2246,-0.2232,-0.2256,-0.2243,-0.2225,-0.2198,-0.2232,-0.2233,-0.2236,-0.2189,-0.2188,-0.2188,-0.2187,0,0,-0.2084,-0.2138,-0.214,-0.216,-0.2198,-0.2215,-0.2252,-0.2282,-0.2302,-0.2305,-0.2324,-0.2326,-0.231,-0.2308,-0.2295,-0.2296,-0.2317,-0.2271,-0.2269,-0.2273,-0.2319,-0.2295,-0.2296,-0.2301,-0.2301,-0.2302,-0.2315,0,-0.2097,-0.2146,-0.2171,-0.2213,-0.2238,-0.2263,-0.2296,-0.2323,-0.2338,-0.236,-0.2354,-0.2363,-0.2338,-0.2335,-0.2335,-0.2321,-0.2324,-0.2315,-0.2286,-0.2286,-0.2258,-0.2298,-0.2099,-0.2092,-0.2317,-0.2318,-0.2318,0,-0.2106,-0.2138,-0.2183,-0.2236,-0.2249,-0.2276,-0.2321,-0.2354,-0.2392,-0.24,-0.241,-0.2407,-0.2416,-0.2384,-0.2378,-0.2371,-0.235,-0.2336,-0.2336,-0.2295,-0.2267,-0.2092,-0.2088,-0.2322,-0.2322,-0.2322,-0.2321,0,-0.2075,-0.2141,-0.2173,-0.2193,-0.226,-0.2278,-0.2308,-0.2354,-0.2382,-0.242,-0.2437,-0.2447,-0.2445,-0.2429,-0.2399,-0.2388,-0.2389,-0.2368,-0.2331,-0.2329,-0.2144,-0.2125,-0.2364,-0.2364,-0.2364,-0.2364,-0.2363,0,-0.2069,-0.2092,-0.216,-0.2176,-0.2211,-0.2261,-0.2299,-0.2332,-0.2386,-0.2412,-0.2444,-0.2461,-0.2453,-0.2452,-0.2422,-0.2387,-0.2404,-0.2345,-0.2333,-0.2159,-0.2143,-0.2324,-0.2319,-0.2364,-0.2364,-0.2364,-0.2364,0,-0.2019,-0.2072,-0.2105,-0.2173,-0.2194,-0.221,-0.228,-0.2306,-0.2367,-0.2405,-0.2416,-0.247,-0.247,-0.2464,-0.2443,-0.241,-0.2383,-0.2364,-0.2169,-0.2134,-0.2321,-0.2319,-0.2333,-0.2332,-0.2331,-0.2331,-0.2331,0,-0.1997,-0.2011,-0.2078,-0.2092,-0.2117,-0.216,-0.2186,-0.2269,-0.23,-0.2399,-0.2405,-0.2448,-0.2453,-0.2439,-0.2375,-0.2332,-0.2371,-0.2137,-0.2086,-0.2332,-0.2319,-0.2318,-0.2316,-0.186,-0.1856,-0.1853,-0.185,0,-0.1934,-0.1955,-0.1979,-0.2012,-0.2039,-0.2075,-0.2121,-0.2154,-0.2249,-0.2296,-0.2352,-0.2379,-0.2381,-0.2254,-0.2214,-0.2155,-0.2132,-0.2069,-0.2356,-0.1915,-0.1892,-0.1878,-0.189,-0.1819,-0.1822,-0.1824,-0.1826,-0.1827,-0.1863,-0.186,-0.1888,-0.1907,-0.1939,-0.1956,-0.1954,-0.2024,-0.2067,-0.2102,-0.2212,-0.219,-0.2168,-0.2023,-0.1928,-0.1848,-0.1994,-0.1883,-0.1891,-0.1903,-0.1862,-0.1841,-0.1751,-0.1753,-0.1756,-0.1758,-0.1759,0,-0.176,-0.1769,-0.1781,-0.1797,-0.1779,-0.1837,-0.1878,-0.1847,-0.1856,-0.1925,-0.1955,-0.1777,-0.1715,-0.1703,-0.1542,-0.1526,-0.1474,-0.1452,-0.1366,-0.1398,-0.1427,-0.1358,-0.1115,-0.1113,-0.1111,-0.111,0,0,-0.1705,-0.1671,-0.1678,-0.1615,-0.1629,-0.1568,-0.1564,-0.1542,-0.1557,-0.1517,-0.1515,-0.1645,-0.1682,-0.1404,-0.1328,-0.1202,-0.1286,-0.1142,-0.1657,-0.1589,-0.1615,-0.1674,-0.1606,0,0,0,0,0]},{"header":{"parameterUnit":"m.s-1","parameterCategory":2,"la1":30.2991,"la2":30.254,"lo1":-89.0895,"lo2":-89.0444,"dy":0.0017,"dx":0.0017,"nx":28,"ny":28,"refTime":"2023-11-13T03:00:00:Z","depth":"2","parameterNumber":3,"parameterNumberName":"V-component_of_CURRENTS"},"data":[0,0,0,0,0,0,0,0,0,0,0,0,0,0,0,0,0,0,0,0,0,0,0,0,0,0,0,0,0,0,0,0,0,0,0,0,0,0,0,0,0,0,0,0,0,0,0,0,0,0,0,0,0,0,0,0,0,0,-0.0279,-0.0278,0,-0.0218,-0.0218,-0.0217,-0.0181,-0.0181,-0.0181,-0.0181,-0.0104,-0.0103,-0.0101,0,0,0,0,0,0,0,0,0,0,0,0,0,-0.0325,-0.0324,-0.0279,-0.0278,-0.0277,-0.0218,-0.0218,-0.0217,-0.0181,-0.0181,-0.0181,-0.0181,-0.0105,-0.0103,-0.0101,0,0,0,0,0,0,0,0,0,0,0,0,0,-0.0289,-0.0324,-0.0279,-0.0252,-0.0249,-0.0219,-0.0218,-0.0217,-0.0181,-0.0181,-0.0181,-0.0181,-0.0106,-0.0103,-0.01,-0.0088,0,0,-0.0092,-0.009,0,0,0,0,0,0,0,0,-0.0291,-0.0287,-0.0257,-0.0254,-0.0251,-0.0207,-0.0206,-0.0173,-0.0181,-0.0207,-0.0181,-0.018,-0.0137,-0.0132,-0.0122,-0.0084,-0.0081,-0.0091,-0.009,-0.0089,-0.0088,0,0,0,0,0,0,0,-0.0294,-0.0289,-0.0255,-0.0256,-0.0252,-0.023,-0.0225,-0.0199,-0.0174,-0.0205,-0.0202,-0.0195,-0.0136,-0.0124,-0.0119,-0.008,-0.0092,-0.0089,-0.0087,-0.0086,-0.0028,-0.0029,0,0,0,0,0,0,-0.0303,-0.0292,-0.0257,-0.0253,-0.0271,-0.023,-0.0224,-0.0221,-0.0175,-0.0168,-0.0196,-0.0194,-0.0129,-0.0123,-0.0117,-0.01,-0.0089,-0.0086,-0.0084,-0.0028,-0.0028,-0.0029,0,0,0,0,0,0,-0.0304,-0.0301,-0.0259,-0.0271,-0.0264,-0.023,-0.0226,-0.022,-0.0209,-0.0168,-0.016,-0.0191,-0.0129,-0.0121,-0.0093,-0.0097,-0.0085,-0.0082,-0.0028,-0.0028,-0.0028,-0.0066,0,0,0,0,0,0,-0.0306,-0.0302,-0.0305,-0.0272,-0.0264,-0.0247,-0.0227,-0.0219,-0.0205,-0.0202,-0.0161,-0.0154,-0.0128,-0.0097,-0.009,-0.0093,-0.008,-0.0028,-0.0028,-0.0028,-0.0065,-0.0068,-0.007,0,0,0,0,0,-0.0308,-0.0315,-0.0306,-0.0301,-0.0269,-0.0248,-0.0242,-0.0216,-0.0205,-0.0204,-0.0173,-0.0155,-0.0094,-0.0095,-0.0086,-0.0088,-0.0028,-0.0028,-0.0028,-0.0063,-0.0067,-0.007,0,0,0,0,0,0,-0.0337,-0.0311,-0.03,-0.0299,-0.0278,-0.0242,-0.0239,-0.022,-0.0194,-0.0192,-0.0152,-0.0143,-0.0122,-0.01,-0.0102,-0.0073,-0.006,-0.0059,-0.0089,-0.0092,-0.0095,-0.0104,-0.0078,0,0,0,0,0,-0.0345,-0.0344,-0.0314,-0.0314,-0.0305,-0.0273,-0.0262,-0.0244,-0.0216,-0.0205,-0.0175,-0.0144,-0.0117,-0.0101,-0.0076,-0.0057,-0.0031,-0.0054,-0.0057,-0.0059,-0.0061,-0.0024,-0.0023,-0.003,-0.003,-0.003,0,0,-0.0355,-0.0342,-0.0341,-0.032,-0.0302,-0.0296,-0.0266,-0.0253,-0.0244,-0.02,-0.0183,-0.0153,-0.0114,-0.0094,-0.0083,-0.0076,-0.0044,-0.006,-0.0062,-0.0063,-0.0024,-0.0023,-0.0023,-0.003,-0.003,-0.003,0,0,-0.038,-0.0365,-0.0374,-0.0362,-0.034,-0.0316,-0.0314,-0.0282,-0.0264,-0.0241,-0.0208,-0.0179,-0.014,-0.0111,-0.0091,-0.0093,-0.0061,-0.009,-0.0107,-0.0071,-0.007,-0.0069,-0.0037,-0.0033,-0.009,-0.009,-0.009,0,-0.0395,-0.0401,-0.0373,-0.038,-0.0375,-0.0328,-0.0337,-0.0309,-0.0271,-0.0255,-0.0243,-0.0178,-0.0147,-0.0112,-0.0115,-0.0099,-0.0076,-0.0098,-0.0075,-0.0073,-0.0071,-0.0039,-0.0034,-0.0092,-0.0091,-0.0091,-0.0091,0,-0.0428,-0.0431,-0.0436,-0.0428,-0.0417,-0.0416,-0.0378,-0.0358,-0.0329,-0.0298,-0.026,-0.0212,-0.0173,-0.016,-0.0136,-0.011,-0.0097,-0.0084,-0.0067,-0.0073,-0.0038,-0.0032,-0.0094,-0.0094,-0.0093,-0.0093,0,0,-0.0463,-0.0461,-0.0462,-0.0472,-0.0445,-0.0441,-0.042,-0.0388,-0.0373,-0.0326,-0.0303,-0.025,-0.0219,-0.0195,-0.0158,-0.0125,-0.0092,-0.0104,-0.0101,-0.0075,-0.0015,0.0027,0.0037,-0.0075,-0.0074,-0.0074,0.0003,0,-0.0497,-0.0529,-0.0511,-0.053,-0.0543,-0.0498,-0.0487,-0.0451,-0.0405,-0.0368,-0.0301,-0.0268,-0.0232,-0.0216,-0.0174,-0.011,-0.0078,-0.0114,-0.0012,-0.0009,0.0027,0.0046,0.0033,0.0104,0.0009,0.001,0.0011,0,-0.0536,-0.0554,-0.0588,-0.0591,-0.0592,-0.059,-0.056,-0.0541,-0.0469,-0.0436,-0.0376,-0.0321,-0.0255,-0.0231,-0.0118,-0.0144,-0.0088,-0.0038,-0.0034,0.0023,0.0044,0.0095,0.0119,0.0022,0.0021,0.002,0.0019,0,-0.0589,-0.0604,-0.0637,-0.064,-0.0634,-0.0633,-0.0617,-0.0563,-0.0547,-0.0471,-0.0449,-0.0357,-0.031,-0.0223,-0.0108,-0.0117,0.0016,0.0019,0.0109,0.0112,0.0132,0.0136,0.0087,0.0087,0.0087,0.0087,0.0087,0,-0.0639,-0.0661,-0.0664,-0.0685,-0.0718,-0.0688,-0.0695,-0.066,-0.0608,-0.0589,-0.0489,-0.0448,-0.0308,-0.0208,-0.0114,0.0029,0.0016,0.0113,0.014,0.0119,0.0121,0.0071,0.0069,0.009,0.0089,0.0089,0.0088,0,-0.0694,-0.0695,-0.0735,-0.0743,-0.0746,-0.0768,-0.0757,-0.0755,-0.0695,-0.0662,-0.0643,-0.0511,-0.0371,-0.0223,-0.0068,0.0023,0.0149,0.0195,0.0164,0.0185,0.0218,0.0213,0.0303,0.0305,0.0307,0.0309,0.031,0,-0.0726,-0.0754,-0.0788,-0.0817,-0.0823,-0.0843,-0.0857,-0.0809,-0.0798,-0.0699,-0.0687,-0.0539,-0.0426,-0.0163,0.0026,0.0216,0.0201,0.0304,0.029,0.0226,0.0243,0.0234,0.0226,0.0298,0.0299,0.03,0.03,0,-0.0785,-0.0796,-0.083,-0.0896,-0.0924,-0.0952,-0.0956,-0.0963,-0.0895,-0.0851,-0.0758,-0.0654,-0.0372,-0.0135,0.013,0.0232,0.0278,0.033,0.0283,0.0246,0.0229,0.0242,0.0233,0.0308,0.0308,0.0307,0.0307,0.0306,-0.0822,-0.0866,-0.0912,-0.0971,-0.1011,-0.1047,-0.107,-0.1052,-0.1033,-0.0937,-0.0818,-0.0637,-0.0377,0.0006,0.0201,0.0375,0.0361,0.0401,0.0395,0.0389,0.0376,0.0363,0.0465,0.0465,0.0465,0.0465,0.0465,0,-0.0867,-0.0917,-0.0982,-0.1048,-0.1102,-0.1103,-0.1127,-0.1115,-0.1095,-0.0963,-0.0837,-0.0555,-0.026,-0.0005,0.0289,0.0466,0.0438,0.0484,0.0419,0.0411,0.0404,0.0389,0.0483,0.0484,0.0484,0.0484,0,0,-0.0892,-0.0966,-0.1003,-0.1107,-0.1155,-0.1204,-0.122,-0.1176,-0.1084,-0.0959,-0.0813,-0.0574,-0.0253,-0.0042,0.0197,0.035,0.0325,0.0355,0.0325,0.0216,0.0206,0.0347,0.0314,0,0,0,0,0]}],[{"header":{"parameterUnit":"m.s-1","parameterCategory":2,"la1":30.2991,"la2":30.254,"lo1":-89.0895,"lo2":-89.0444,"dy":0.0017,"dx":0.0017,"nx":28,"ny":28,"refTime":"2023-11-13T03:00:00:Z","depth":"4","parameterNumber":2,"parameterNumberName":"U-component_of_CURRENTS"},"data":[0,0,0,0,0,0,0,0,0,0,0,0,0,0,0,0,0,0,0,0,0,0,0,0,0,0,0,0,0,0,0,0,0,0,0,0,0,0,0,0,0,0,0,0,0,0,0,0,0,0,0,0,0,0,0,0,0,0,-0.1436,-0.1437,0,-0.1476,-0.1476,-0.1477,-0.1503,-0.1504,-0.1504,-0.1504,-0.1542,-0.1543,-0.1544,0,0,0,0,0,0,0,0,0,0,0,0,0,-0.1374,-0.1375,-0.1436,-0.1437,-0.1438,-0.1476,-0.1476,-0.1477,-0.1503,-0.1504,-0.1504,-0.1504,-0.1542,-0.1543,-0.1544,0,0,0,0,0,0,0,0,0,0,0,0,0,-0.1404,-0.1375,-0.1436,-0.1457,-0.1459,-0.1476,-0.1476,-0.1477,-0.1503,-0.1504,-0.1504,-0.1505,-0.1542,-0.1543,-0.1544,-0.1539,0,0,-0.1547,-0.1547,0,0,0,0,0,0,0,0,-0.1402,-0.1406,-0.1453,-0.1456,-0.1458,-0.1487,-0.1469,-0.1498,-0.1503,-0.1484,-0.1504,-0.1505,-0.1525,-0.1527,-0.153,-0.154,-0.1542,-0.1547,-0.1548,-0.1548,-0.1548,0,0,0,0,0,0,0,-0.14,-0.1405,-0.145,-0.1454,-0.1457,-0.1461,-0.1466,-0.1474,-0.1499,-0.1486,-0.1488,-0.1496,-0.1526,-0.1529,-0.1531,-0.1543,-0.1547,-0.1548,-0.1548,-0.1549,-0.1624,-0.1625,0,0,0,0,0,0,-0.14,-0.1403,-0.1449,-0.1451,-0.1434,-0.1462,-0.1467,-0.1476,-0.1499,-0.1504,-0.1496,-0.1497,-0.1527,-0.153,-0.1533,-0.1597,-0.1548,-0.1549,-0.1549,-0.1622,-0.1624,-0.1626,0,0,0,0,0,0,-0.1398,-0.1403,-0.1447,-0.1429,-0.1436,-0.1463,-0.1472,-0.1476,-0.1506,-0.1507,-0.1511,-0.1524,-0.1528,-0.1532,-0.1564,-0.1596,-0.1549,-0.155,-0.1621,-0.1623,-0.1625,-0.168,0,0,0,0,0,0,-0.1396,-0.1403,-0.1419,-0.1429,-0.1437,-0.1476,-0.1472,-0.1477,-0.1509,-0.1512,-0.1532,-0.1535,-0.1529,-0.1563,-0.1565,-0.1596,-0.1551,-0.1619,-0.1622,-0.1624,-0.1677,-0.1684,-0.169,0,0,0,0,0,-0.1394,-0.141,-0.1419,-0.1425,-0.1454,-0.1477,-0.1482,-0.1501,-0.151,-0.1528,-0.1543,-0.1536,-0.1581,-0.1565,-0.1567,-0.1599,-0.1618,-0.1621,-0.1624,-0.1674,-0.1683,-0.169,0,0,0,0,0,0,-0.1394,-0.1415,-0.1425,-0.1449,-0.1471,-0.1483,-0.1503,-0.1516,-0.1542,-0.1551,-0.1551,-0.1555,-0.1596,-0.159,-0.1572,-0.1629,-0.1599,-0.1603,-0.1636,-0.1645,-0.1651,-0.165,-0.1552,0,0,0,0,0,-0.14,-0.1419,-0.144,-0.1461,-0.1474,-0.1494,-0.151,-0.1525,-0.1544,-0.1557,-0.1573,-0.1589,-0.1606,-0.162,-0.1632,-0.1662,-0.1648,-0.1685,-0.1692,-0.1698,-0.1699,-0.1701,-0.1708,-0.1636,-0.1636,-0.1636,0,0,-0.1407,-0.1421,-0.1433,-0.1463,-0.148,-0.1509,-0.1506,-0.1538,-0.1569,-0.1556,-0.1607,-0.1615,-0.162,-0.1655,-0.1673,-0.1657,-0.1714,-0.1702,-0.1706,-0.1704,-0.1705,-0.1712,-0.1718,-0.1638,-0.1638,-0.1637,0,0,-0.1422,-0.1443,-0.1463,-0.1486,-0.152,-0.1534,-0.1551,-0.1581,-0.1604,-0.1645,-0.1647,-0.1673,-0.1703,-0.1711,-0.1717,-0.1769,-0.1749,-0.178,-0.1814,-0.1817,-0.1823,-0.1827,-0.1826,-0.183,-0.1784,-0.1784,-0.1784,0,-0.1432,-0.1458,-0.1474,-0.1502,-0.1525,-0.155,-0.1582,-0.1609,-0.1649,-0.1668,-0.1672,-0.172,-0.1727,-0.1763,-0.1784,-0.1784,-0.178,-0.1782,-0.1825,-0.1829,-0.1833,-0.1831,-0.1834,-0.1787,-0.1786,-0.1786,-0.1786,0,-0.1456,-0.1489,-0.1505,-0.1547,-0.1575,-0.1607,-0.1644,-0.1682,-0.1712,-0.1732,-0.1782,-0.179,-0.1814,-0.1828,-0.1823,-0.1862,-0.1849,-0.1832,-0.1801,-0.1843,-0.1839,-0.1842,-0.1791,-0.179,-0.1789,-0.1788,0,0,-0.1441,-0.1509,-0.1517,-0.1547,-0.1603,-0.1626,-0.1684,-0.1732,-0.177,-0.1809,-0.185,-0.1884,-0.1887,-0.1894,-0.1895,-0.1903,-0.1932,-0.1886,-0.1885,-0.188,-0.194,-0.1821,-0.1812,-0.1924,-0.1924,-0.1925,-0.1928,0,-0.1456,-0.1513,-0.1545,-0.1607,-0.1637,-0.1683,-0.1731,-0.1781,-0.1821,-0.1868,-0.1886,-0.1923,-0.1913,-0.1929,-0.1939,-0.1934,-0.1942,-0.1933,-0.1904,-0.1903,-0.1787,-0.1812,-0.1927,-0.193,-0.193,-0.1931,-0.1931,0,-0.146,-0.15,-0.1562,-0.1635,-0.1654,-0.1699,-0.1774,-0.1822,-0.1888,-0.1917,-0.1953,-0.1967,-0.1997,-0.1978,-0.1987,-0.1983,-0.1969,-0.1959,-0.1959,-0.1827,-0.1788,-0.1877,-0.1936,-0.1935,-0.1935,-0.1935,-0.1934,0,-0.1423,-0.1506,-0.1557,-0.1584,-0.1673,-0.1715,-0.1765,-0.1837,-0.1878,-0.1948,-0.1975,-0.201,-0.2027,-0.2022,-0.2004,-0.2002,-0.2001,-0.1989,-0.187,-0.1862,-0.1943,-0.1938,-0.1991,-0.1991,-0.1991,-0.1991,-0.1991,0,-0.1405,-0.1448,-0.155,-0.1576,-0.1639,-0.1707,-0.1774,-0.1827,-0.1902,-0.1935,-0.1995,-0.2011,-0.204,-0.2041,-0.202,-0.1945,-0.201,-0.1874,-0.1851,-0.1968,-0.1966,-0.1946,-0.194,-0.1991,-0.1991,-0.1991,-0.1991,0,-0.1343,-0.1417,-0.1477,-0.1584,-0.1622,-0.1663,-0.177,-0.1806,-0.189,-0.1935,-0.1956,-0.202,-0.2012,-0.2022,-0.2011,-0.1946,-0.1899,-0.1857,-0.1986,-0.1971,-0.1759,-0.1757,-0.1724,-0.172,-0.1717,-0.1714,-0.1711,0,-0.1313,-0.1341,-0.1463,-0.1499,-0.155,-0.1629,-0.1674,-0.1781,-0.1811,-0.1915,-0.1913,-0.1957,-0.1976,-0.1865,-0.1892,-0.184,-0.1816,-0.1786,-0.1769,-0.1749,-0.1731,-0.1734,-0.1737,-0.1705,-0.1704,-0.1703,-0.1703,0,-0.1243,-0.1299,-0.1346,-0.1421,-0.1482,-0.1538,-0.161,-0.1625,-0.173,-0.183,-0.1817,-0.1809,-0.18,-0.178,-0.1748,-0.1712,-0.1802,-0.1748,-0.1756,-0.1739,-0.1725,-0.1712,-0.1719,-0.169,-0.1692,-0.1693,-0.1694,0,-0.1184,-0.1199,-0.1268,-0.1317,-0.1389,-0.1408,-0.1472,-0.1503,-0.1552,-0.1672,-0.1663,-0.171,-0.178,-0.1713,-0.1685,-0.1638,-0.1613,-0.1559,-0.1576,-0.159,-0.1542,-0.1505,-0.1378,0,0,0,0,0,-0.1113,-0.1115,-0.1155,-0.1204,-0.1267,-0.1303,-0.1403,-0.1468,-0.1581,-0.1528,-0.1592,-0.1575,-0.1542,-0.1574,-0.1493,-0.1617,-0.1615,-0.1517,-0.1561,-0.1621,-0.1635,-0.1589,0,0,0,0,0,0,-0.1066,-0.1097,-0.111,-0.1086,-0.1094,-0.1148,-0.1203,-0.1288,-0.1273,-0.1394,-0.1383,-0.1475,-0.1463,-0.1553,-0.1456,-0.1463,-0.1459,-0.1558,-0.1554,-0.1613,-0.1626,-0.1637,-0.1595,0,0,0,0,0]},{"header":{"parameterUnit":"m.s-1","parameterCategory":2,"la1":30.2991,"la2":30.254,"lo1":-89.0895,"lo2":-89.0444,"dy":0.0017,"dx":0.0017,"nx":28,"ny":28,"refTime":"2023-11-13T03:00:00:Z","depth":"4","parameterNumber":3,"parameterNumberName":"V-component_of_CURRENTS"},"data":[0,0,0,0,0,0,0,0,0,0,0,0,0,0,0,0,0,0,0,0,0,0,0,0,0,0,0,0,0,0,0,0,0,0,0,0,0,0,0,0,0,0,0,0,0,0,0,0,0,0,0,0,0,0,0,0,0,0,-0.0105,-0.0105,0,-0.0067,-0.0066,-0.0066,-0.0043,-0.0043,-0.0043,-0.0043,0.0015,0.0016,0.0018,0,0,0,0,0,0,0,0,0,0,0,0,0,-0.0126,-0.0126,-0.0105,-0.0105,-0.0104,-0.0067,-0.0066,-0.0066,-0.0043,-0.0043,-0.0043,-0.0043,0.0014,0.0016,0.0018,0,0,0,0,0,0,0,0,0,0,0,0,0,-0.0105,-0.0126,-0.0105,-0.0088,-0.0087,-0.0067,-0.0066,-0.0066,-0.0043,-0.0043,-0.0043,-0.0043,0.0014,0.0016,0.0018,0.0029,0,0,0.0025,0.0026,0,0,0,0,0,0,0,0,-0.0107,-0.0105,-0.0091,-0.009,-0.0087,-0.006,-0.0053,-0.0033,-0.0043,-0.0059,-0.0043,-0.0043,-0.0009,-0.0005,0.0002,0.0032,0.0034,0.0025,0.0026,0.0027,0.0028,0,0,0,0,0,0,0,-0.0108,-0.0106,-0.009,-0.0091,-0.0089,-0.0072,-0.0069,-0.0049,-0.0035,-0.0058,-0.0056,-0.0052,-0.0007,0.0,0.0004,0.0035,0.0025,0.0027,0.0028,0.0029,0.0071,0.0071,0,0,0,0,0,0,-0.0115,-0.0108,-0.0091,-0.0089,-0.0097,-0.0072,-0.0069,-0.0069,-0.0035,-0.003,-0.0052,-0.0051,-0.0004,0.0001,0.0006,0.0016,0.0027,0.0029,0.003,0.0071,0.0071,0.0071,0,0,0,0,0,0,-0.0116,-0.0114,-0.0092,-0.0097,-0.0093,-0.0072,-0.0072,-0.0068,-0.0062,-0.0031,-0.0026,-0.0051,-0.0003,0.0003,0.0023,0.0019,0.003,0.0032,0.0072,0.0071,0.0071,0.0039,0,0,0,0,0,0,-0.0117,-0.0115,-0.012,-0.0098,-0.0093,-0.0087,-0.0072,-0.0067,-0.006,-0.0058,-0.0028,-0.0022,-0.0003,0.0019,0.0025,0.0022,0.0034,0.0072,0.0071,0.0071,0.0041,0.0038,0.0036,0,0,0,0,0,-0.0118,-0.0125,-0.012,-0.0118,-0.01,-0.0087,-0.0083,-0.0067,-0.006,-0.0061,-0.0038,-0.0023,0.0021,0.0021,0.0028,0.0025,0.0072,0.0072,0.0071,0.0042,0.0038,0.0036,0,0,0,0,0,0,-0.0136,-0.0123,-0.0117,-0.012,-0.0107,-0.0083,-0.0084,-0.0071,-0.0053,-0.0052,-0.0022,-0.0015,-0.0001,0.0017,0.0016,0.0036,0.0047,0.0048,0.0023,0.002,0.0018,0.0011,0.0036,0,0,0,0,0,-0.0143,-0.0146,-0.0128,-0.0131,-0.0127,-0.0106,-0.0099,-0.0089,-0.0069,-0.0062,-0.0041,-0.0018,0.0003,0.0015,0.0033,0.0047,0.007,0.0048,0.0046,0.0044,0.0042,0.0075,0.0076,0.007,0.007,0.007,0,0,-0.015,-0.0144,-0.0146,-0.0136,-0.0125,-0.0124,-0.0102,-0.0096,-0.0092,-0.0058,-0.0049,-0.0026,0.0004,0.0018,0.0025,0.0032,0.0057,0.0043,0.0041,0.0041,0.0075,0.0076,0.0076,0.0069,0.0069,0.0069,0,0,-0.017,-0.0163,-0.0173,-0.0167,-0.0156,-0.014,-0.014,-0.012,-0.0109,-0.0095,-0.0071,-0.0049,-0.0021,0.0002,0.0018,0.0014,0.0042,0.0016,0.0001,0.0033,0.0034,0.0035,0.0063,0.0067,0.0016,0.0016,0.0016,0,-0.018,-0.019,-0.0173,-0.0181,-0.0181,-0.015,-0.016,-0.0141,-0.0117,-0.0107,-0.0099,-0.0051,-0.0027,-0.0,-0.0003,0.0009,0.0029,0.001,0.003,0.0032,0.0034,0.0062,0.0066,0.0015,0.0015,0.0015,0.0015,0,-0.0206,-0.0215,-0.022,-0.022,-0.0216,-0.0219,-0.0195,-0.0184,-0.0165,-0.0144,-0.0118,-0.008,-0.0052,-0.0041,-0.0023,-0.0001,0.0011,0.0022,0.0037,0.0032,0.0062,0.0068,0.0012,0.0013,0.0014,0.0014,0,0,-0.0229,-0.0238,-0.024,-0.0252,-0.024,-0.024,-0.0229,-0.0211,-0.0203,-0.017,-0.0155,-0.0114,-0.0091,-0.0071,-0.0042,-0.0012,0.0016,0.0005,0.0008,0.0032,0.0084,0.0088,0.0095,0.0031,0.0032,0.0033,0.01,0,-0.0255,-0.0287,-0.0278,-0.0301,-0.0315,-0.0288,-0.0285,-0.0262,-0.0231,-0.0207,-0.0154,-0.0132,-0.0102,-0.009,-0.0054,0.0,0.0029,-0.0003,0.0087,0.0089,0.0093,0.0101,0.0035,0.0104,0.0106,0.0107,0.0107,0,-0.0283,-0.0303,-0.0338,-0.0352,-0.0355,-0.0361,-0.0349,-0.0338,-0.0288,-0.0266,-0.022,-0.0178,-0.0123,-0.0103,-0.0005,-0.0028,0.0021,0.0064,0.0068,0.0087,0.0103,0.0112,0.0117,0.0117,0.0116,0.0115,0.0114,0,-0.0317,-0.0341,-0.0374,-0.0381,-0.0389,-0.0397,-0.0393,-0.0359,-0.0352,-0.0298,-0.0283,-0.0208,-0.0171,-0.0095,0.0002,-0.0004,0.011,0.0115,0.0165,0.0166,0.0157,0.0155,0.0175,0.0175,0.0175,0.0175,0.0175,0,-0.0349,-0.0374,-0.0396,-0.0416,-0.0455,-0.0441,-0.0459,-0.0438,-0.0406,-0.0396,-0.0319,-0.0286,-0.0168,-0.0084,-0.0004,0.0104,0.0109,0.0166,0.0186,0.0141,0.0137,0.0161,0.0158,0.0177,0.0177,0.0176,0.0176,0,-0.0379,-0.0393,-0.0436,-0.0462,-0.0474,-0.0501,-0.0514,-0.0518,-0.048,-0.0461,-0.0447,-0.034,-0.0227,-0.0105,0.0029,0.0094,0.0195,0.0228,0.0173,0.0189,0.0229,0.0224,0.0288,0.0288,0.0289,0.0289,0.029,0,-0.0395,-0.0422,-0.0478,-0.0512,-0.0528,-0.0562,-0.0584,-0.0562,-0.0557,-0.049,-0.0479,-0.0367,-0.0286,-0.0086,0.004,0.0202,0.0219,0.0268,0.0246,0.0228,0.0242,0.0236,0.023,0.0291,0.0291,0.0291,0.0291,0,-0.0425,-0.0449,-0.0485,-0.0561,-0.0601,-0.064,-0.0659,-0.0663,-0.0623,-0.0593,-0.05,-0.0383,-0.0249,-0.0087,0.0045,0.0158,0.0237,0.0275,0.0274,0.0253,0.0233,0.0244,0.0238,0.0293,0.0293,0.0293,0.0293,0,-0.0443,-0.0481,-0.0536,-0.0597,-0.0655,-0.0693,-0.0703,-0.0684,-0.0669,-0.0585,-0.0554,-0.0397,-0.0299,-0.0109,0.0012,0.0129,0.015,0.0174,0.0179,0.0178,0.0127,0.0084,0.0118,0,0,0,0,0,-0.0455,-0.05,-0.0566,-0.063,-0.0688,-0.072,-0.074,-0.0734,-0.0697,-0.0641,-0.0594,-0.0466,-0.0259,-0.0157,-0.0042,0.0011,0.016,0.0149,0.0187,0.0305,0.0303,0.0262,0,0,0,0,0,0,-0.0464,-0.0528,-0.0565,-0.064,-0.0689,-0.0743,-0.0761,-0.074,-0.0695,-0.0641,-0.0528,-0.0449,-0.0246,-0.0329,-0.0043,-0.0004,0.0033,0.0254,0.0256,0.0307,0.0305,0.0303,0.026,0,0,0,0,0]}]]